Terminal Aerodrome Forecast
Issued by NWS Louisville, KY

Home | Current Version | Previous Version | Text Only | Print | Product List | Glossary On
Versions: 1 2 3 4 5 6 7 8 9 10 11 12 13 14 15 16 17 18 19
000
FTUS43 KLMK 181100 AAA
TAFSDF
TAF AMD
KSDF 181120Z 1811/1912 33004KT P6SM BKN020 OVC060
     FM181700 33005KT P6SM OVC025
     FM182300 33003KT P6SM SCT025=

USA.gov is the U.S. government's official web portal to all federal, state and local government web resources and services.